When you browse on this site, cookies collect data to enhance your experience and personalize the content and advertising you see.
Visit our Privacy Policy to learn more. By continuing to use the site, you agree to this use of cookies and data.

Previsão horária em Abakumovo

Hoje, 25 Setembro, Sexta-feira

Tempo Temperatura Precipitação Vento Pressão Humidade
00:00 +10°C° 0 mm 2 m/s 746 mmHg 91%
01:00 +10°C° 0 mm 2 m/s 746 mmHg 92%
02:00 +10°C° 0 mm 2 m/s 746 mmHg 94%
03:00 +9°C° 0 mm 2 m/s 746 mmHg 94%
04:00 +9°C° 0 mm 2 m/s 746 mmHg 93%
05:00 +9°C° 0 mm 2 m/s 746 mmHg 93%
06:00 +10°C° 0 mm 2 m/s 746 mmHg 87%
07:00 +12°C° 0 mm 2 m/s 746 mmHg 81%
08:00 +14°C° 0 mm 2 m/s 746 mmHg 76%
09:00 +14°C° 0 mm 3 m/s 746 mmHg 71%
10:00 +17°C° 0 mm 3 m/s 746 mmHg 66%
11:00 +19°C° 0 mm 3 m/s 746 mmHg 61%
12:00 +19°C° 0 mm 3 m/s 746 mmHg 59%
13:00 +20°C° 0 mm 3 m/s 746 mmHg 57%
14:00 +21°C° 0 mm 3 m/s 746 mmHg 54%
15:00 +19°C° 0 mm 3 m/s 746 mmHg 62%
16:00 +18°C° 0 mm 2 m/s 746 mmHg 70%
17:00 +16°C° 0 mm 2 m/s 745 mmHg 77%
18:00 +15°C° 0 mm 2 m/s 745 mmHg 80%
19:00 +15°C° 0 mm 2 m/s 746 mmHg 82%
20:00 +14°C° 0 mm 2 m/s 746 mmHg 85%
21:00 +13°C° 0 mm 2 m/s 746 mmHg 85%
22:00 +13°C° 0 mm 2 m/s 746 mmHg 86%
23:00 +12°C° 0 mm 2 m/s 746 mmHg 86%

Amanhã, 26 Setembro, Sábado

Tempo Temperatura Precipitação Vento Pressão Humidade
00:00 +12°C° 0 mm 2 m/s 746 mmHg 87%
01:00 +12°C° 0 mm 2 m/s 746 mmHg 89%
02:00 +10°C° 0 mm 2 m/s 746 mmHg 90%
03:00 +10°C° 0 mm 2 m/s 746 mmHg 89%
04:00 +10°C° 0 mm 2 m/s 746 mmHg 89%
05:00 +10°C° 0 mm 2 m/s 746 mmHg 88%
06:00 +11°C° 0 mm 3 m/s 747 mmHg 84%
07:00 +12°C° 0 mm 3 m/s 747 mmHg 79%
08:00 +13°C° 0 mm 3 m/s 747 mmHg 75%
09:00 +14°C° 0 mm 3 m/s 747 mmHg 71%
10:00 +17°C° 0 mm 3 m/s 748 mmHg 66%
11:00 +18°C° 0 mm 3 m/s 748 mmHg 62%
12:00 +19°C° 0 mm 3 m/s 748 mmHg 60%
13:00 +20°C° 0 mm 3 m/s 748 mmHg 59%
14:00 +20°C° 0 mm 4 m/s 748 mmHg 57%
15:00 +19°C° 0 mm 3 m/s 748 mmHg 64%
16:00 +18°C° 0 mm 3 m/s 748 mmHg 70%
17:00 +16°C° 0 mm 3 m/s 748 mmHg 76%
18:00 +14°C° 0 mm 3 m/s 748 mmHg 79%
19:00 +14°C° 0 mm 3 m/s 748 mmHg 81%
20:00 +13°C° 0 mm 3 m/s 749 mmHg 84%
21:00 +13°C° 0 mm 2 m/s 749 mmHg 85%
22:00 +13°C° 0 mm 2 m/s 749 mmHg 85%
23:00 +12°C° 0 mm 2 m/s 749 mmHg 86%

Depois de amanhã, 27 Setembro, Domingo

Tempo Temperatura Precipitação Vento Pressão Humidade
00:00 +12°C° 0 mm 2 m/s 749 mmHg 87%
01:00 +10°C° 0 mm 2 m/s 750 mmHg 88%
02:00 +10°C° 0 mm 2 m/s 750 mmHg 89%
03:00 +10°C° 0 mm 2 m/s 750 mmHg 89%
04:00 +9°C° 0 mm 2 m/s 750 mmHg 90%
05:00 +9°C° 0 mm 2 m/s 750 mmHg 90%
06:00 +10°C° 0 mm 2 m/s 750 mmHg 85%
07:00 +13°C° 0 mm 2 m/s 750 mmHg 80%
08:00 +13°C° 0 mm 3 m/s 750 mmHg 75%
09:00 +14°C° 0 mm 3 m/s 750 mmHg 71%
10:00 +16°C° 0 mm 3 m/s 750 mmHg 67%
11:00 +18°C° 0 mm 3 m/s 750 mmHg 63%
12:00 +18°C° 0 mm 3 m/s 750 mmHg 62%
13:00 +19°C° 0 mm 3 m/s 751 mmHg 61%
14:00 +19°C° 0 mm 3 m/s 751 mmHg 59%
15:00 +18°C° 0 mm 3 m/s 750 mmHg 64%
16:00 +17°C° 0 mm 2 m/s 750 mmHg 69%
17:00 +16°C° 0 mm 2 m/s 750 mmHg 74%
18:00 +15°C° 0 mm 2 m/s 750 mmHg 75%
19:00 +14°C° 0 mm 2 m/s 751 mmHg 76%
20:00 +13°C° 0 mm 2 m/s 751 mmHg 77%
21:00 +12°C° 0 mm 2 m/s 751 mmHg 77%
22:00 +12°C° 0 mm 2 m/s 751 mmHg 78%
23:00 +10°C° 0 mm 2 m/s 751 mmHg 79%

28 Setembro, Segunda-feira

Tempo Temperatura Precipitação Vento Pressão Humidade
00:00 +10°C° 0 mm 2 m/s 751 mmHg 78%
01:00 +9°C° 0 mm 2 m/s 751 mmHg 78%
02:00 +9°C° 0 mm 2 m/s 750 mmHg 78%
03:00 +9°C° 0 mm 2 m/s 750 mmHg 78%
04:00 +9°C° 0 mm 3 m/s 750 mmHg 78%
05:00 +8°C° 0 mm 3 m/s 750 mmHg 79%
06:00 +9°C° 0 mm 3 m/s 750 mmHg 76%
07:00 +10°C° 0 mm 3 m/s 750 mmHg 74%
08:00 +10°C° 0 mm 3 m/s 750 mmHg 71%
09:00 +12°C° 0 mm 3 m/s 750 mmHg 67%
10:00 +13°C° 0 mm 3 m/s 750 mmHg 62%
11:00 +16°C° 0 mm 3 m/s 750 mmHg 58%
12:00 +16°C° 0 mm 3 m/s 750 mmHg 56%
13:00 +17°C° 0 mm 3 m/s 750 mmHg 54%
14:00 +17°C° 0 mm 4 m/s 750 mmHg 52%
15:00 +16°C° 0 mm 3 m/s 750 mmHg 59%
16:00 +13°C° 0 mm 3 m/s 750 mmHg 65%
17:00 +13°C° 0 mm 2 m/s 750 mmHg 71%
18:00 +12°C° 0 mm 2 m/s 750 mmHg 76%
19:00 +10°C° 0 mm 3 m/s 749 mmHg 81%
20:00 +10°C° 0 mm 3 m/s 749 mmHg 86%
21:00 +10°C° 0 mm 3 m/s 749 mmHg 87%
22:00 +10°C° 0 mm 3 m/s 749 mmHg 88%
23:00 +10°C° 0 mm 3 m/s 749 mmHg 89%

29 Setembro, Terça-feira

Tempo Temperatura Precipitação Vento Pressão Humidade
00:00 +10°C° 0.1 mm 3 m/s 749 mmHg 90%
01:00 +9°C° 0.1 mm 2 m/s 749 mmHg 91%
02:00 +9°C° 0.1 mm 2 m/s 749 mmHg 92%
03:00 +9°C° 0.1 mm 2 m/s 749 mmHg 93%
04:00 +9°C° 0.1 mm 2 m/s 749 mmHg 93%
05:00 +9°C° 0.1 mm 2 m/s 748 mmHg 94%
06:00 +9°C° 0.1 mm 2 m/s 748 mmHg 94%
07:00 +9°C° 0.1 mm 2 m/s 748 mmHg 94%
08:00 +9°C° 0.1 mm 2 m/s 748 mmHg 94%
09:00 +9°C° 0.1 mm 2 m/s 748 mmHg 94%
10:00 +10°C° 0.1 mm 2 m/s 748 mmHg 93%
11:00 +10°C° 0.1 mm 2 m/s 748 mmHg 93%
12:00 +11°C° 0 mm 1 m/s 748 mmHg 92%
13:00 +12°C° 0 mm 1 m/s 748 mmHg 91%
14:00 +12°C° 0 mm 1 m/s 748 mmHg 90%
15:00 +12°C° 0 mm 1 m/s 748 mmHg 91%
16:00 +12°C° 0 mm 1 m/s 748 mmHg 93%
17:00 +12°C° 0 mm 1 m/s 748 mmHg 94%
18:00 +12°C° 0 mm 1 m/s 748 mmHg 94%
19:00 +12°C° 0 mm 1 m/s 749 mmHg 95%
20:00 +12°C° 0 mm 1 m/s 749 mmHg 95%
21:00 +11°C° 0 mm 1 m/s 748 mmHg 95%
22:00 +11°C° 0 mm 1 m/s 748 mmHg 95%
23:00 +11°C° 0 mm 1 m/s 748 mmHg 95%

30 Setembro, Quarta-feira

Tempo Temperatura Precipitação Vento Pressão Humidade
00:00 +10°C° 0 mm 1 m/s 748 mmHg 96%
01:00 +10°C° 0 mm 1 m/s 748 mmHg 96%
02:00 +10°C° 0 mm 1 m/s 748 mmHg 96%
03:00 +9°C° 0 mm 1 m/s 748 mmHg 96%
04:00 +9°C° 0 mm 1 m/s 748 mmHg 97%
05:00 +9°C° 0 mm 1 m/s 748 mmHg 97%
06:00 +8°C° 0 mm 2 m/s 748 mmHg 93%
07:00 +9°C° 0 mm 2 m/s 748 mmHg 89%
08:00 +9°C° 0 mm 2 m/s 748 mmHg 85%
09:00 +12°C° 0 mm 2 m/s 748 mmHg 81%
10:00 +13°C° 0 mm 2 m/s 749 mmHg 77%
11:00 +14°C° 0 mm 2 m/s 749 mmHg 73%
12:00 +15°C° 0 mm 2 m/s 749 mmHg 72%
13:00 +15°C° 0 mm 2 m/s 749 mmHg 71%
14:00 +16°C° 0 mm 2 m/s 748 mmHg 70%
15:00 +15°C° 0 mm 2 m/s 748 mmHg 75%
16:00 +14°C° 0 mm 2 m/s 748 mmHg 80%
17:00 +13°C° 0 mm 2 m/s 748 mmHg 84%
18:00 +13°C° 0 mm 2 m/s 749 mmHg 80%
19:00 +13°C° 0 mm 2 m/s 749 mmHg 76%
20:00 +11°C° 0 mm 3 m/s 749 mmHg 71%
21:00 +12°C° 0 mm 2 m/s 749 mmHg 73%
22:00 +10°C° 0 mm 2 m/s 749 mmHg 75%
23:00 +9°C° 0 mm 2 m/s 749 mmHg 78%
Mostrar mais